Weather History for Morgantown, WV

Change the Weather History Date:

Friday, September 23, 2011

  Actual Average Record
Temperature  
Mean Temperature 66 °F 62 °F  
Max Temperature 72 °F 73 °F 90 °F (2010)
Min Temperature 60 °F 52 °F 34 °F (1963)
Degree Days  
Heating Degree Days 0 4  
Month to date heating degree days 52 48  
Since 1 July heating degree days 52 59  
Cooling Degree Days 1 2  
Month to date cooling degree days 90 82  
Year to date cooling degree days 991 791  
Growing Degree Days 16 (Base 50)    
Moisture  
Dew Point 61 °F    
Average Humidity 85    
Maximum Humidity 97    
Minimum Humidity 73    
Precipitation  
Precipitation 0.03 in 0.11 in 1.12 in (1955)
Month to date precipitation 6.50 2.46  
Year to date precipitation 43.93 31.93  
Sea Level Pressure  
Sea Level Pressure 29.99 in    
Wind  
Wind Speed 2 mph (WSW)    
Max Wind Speed 8 mph    
Max Gust Speed 13 mph    
Visibility 9 miles    
Events Rain , Thunderstorm    
T = Trace of Precipitation, MM = Missing Value Source: NWS Daily Summary

Daily Weather History Graph

Daily Weather History Graph

Search for Another Location

Airport:

Trip Planner

Search our weather history database for the weather conditions in past years. The results will help you decide how hot, cold, wet, or windy it might be!

Date:

Astronomy

Sep. 23, 2011 Rise Set
Actual Time 7:07 AM EDT 7:15 PM EDT
Civil Twilight 6:41 AM EDT 7:42 PM EDT
Nautical Twilight 6:09 AM EDT 8:13 PM EDT
Astronomical Twilight 5:37 AM EDT 8:45 PM EDT
Moon 2:33 AM EDT (9/23) 4:44 PM EDT (9/23)
Length of Visible Light 13h 01m
Length of Day
12h 07m
Waning Crescent, 19% of the Moon is Illuminated
Sep 23
Waning Crescent
Sep 27
New
Oct 3
First Quarter
Oct 11
Full
Oct 19
Last Quarter

Hourly Weather History & Observations

Time (EDT) Temp. Dew Point Humidity Pressure Visibility Wind Dir Wind Speed Gust Speed Precip Events Conditions
12:53 AM 64.0 °F 61.0 °F 90% 30.08 in 8.0 mi Calm Calm - N/A   Clear
1:53 AM 64.0 °F 60.1 °F 87% 30.06 in 7.0 mi Calm Calm - N/A   Partly Cloudy
2:53 AM 64.0 °F 60.1 °F 87% 30.03 in 10.0 mi SSE 5.8 mph - N/A   Clear
3:53 AM 62.1 °F 60.1 °F 93% 30.01 in 7.0 mi Calm Calm - N/A   Clear
4:53 AM 64.0 °F 60.1 °F 87% 29.99 in 10.0 mi Calm Calm - N/A   Mostly Cloudy
5:53 AM 62.1 °F 60.1 °F 93% 29.99 in 6.0 mi Calm Calm - N/A   Overcast
6:53 AM 62.1 °F 61.0 °F 96% 29.99 in 6.0 mi Calm Calm - N/A   Mostly Cloudy
7:44 AM 64.4 °F 60.8 °F 88% 30.01 in 8.0 mi Calm Calm - 0.00 in Rain , Thunderstorm Light Rain
7:53 AM 64.4 °F 60.8 °F 88% 30.01 in 8.0 mi SSE 3.5 mph - N/A Rain Light Rain
8:53 AM 64.0 °F 62.1 °F 93% 29.98 in 6.0 mi Calm Calm - 0.01 in Rain Light Rain
9:53 AM 69.1 °F 63.0 °F 81% 29.97 in 10.0 mi SE 3.5 mph - N/A   Overcast
10:53 AM 66.9 °F 63.0 °F 87% 29.98 in 7.0 mi WNW 3.5 mph - N/A   Overcast
11:53 AM 66.2 °F 64.4 °F 94% 29.99 in 7.0 mi Calm Calm - N/A Rain Light Rain
12:53 PM 68.0 °F 64.0 °F 87% 29.96 in 10.0 mi Variable 4.6 mph - 0.01 in Rain Light Rain
1:08 PM 68.0 °F 64.4 °F 88% 29.97 in 10.0 mi Variable 5.8 mph - 0.00 in Rain Light Rain
1:19 PM 68.0 °F 64.4 °F 88% 29.97 in 10.0 mi South 4.6 mph - 0.00 in Rain Light Rain
1:53 PM 68.0 °F 64.9 °F 90% 29.94 in 10.0 mi SSW 3.5 mph - 0.01 in Rain Light Rain
2:53 PM 69.8 °F 64.4 °F 83% 29.93 in 10.0 mi SSW 3.5 mph - N/A   Mostly Cloudy
3:53 PM 70.0 °F 64.9 °F 84% 29.91 in 10.0 mi Calm Calm - N/A   Overcast
4:53 PM 71.1 °F 63.0 °F 75% 29.90 in 10.0 mi Variable 4.6 mph - N/A   Overcast
5:46 PM 69.8 °F 62.6 °F 78% 29.93 in 10.0 mi Variable 4.6 mph - N/A   Overcast
5:53 PM 69.1 °F 64.0 °F 84% 29.92 in 10.0 mi Calm Calm - 0.00 in Rain Light Rain
6:34 PM 66.2 °F 62.6 °F 88% 29.94 in 10.0 mi NW 5.8 mph - 0.00 in   Overcast
6:53 PM 64.9 °F 61.0 °F 87% 29.94 in 10.0 mi WNW 5.8 mph - 0.00 in   Overcast
7:53 PM 61.0 °F 59.0 °F 93% 29.98 in 9.0 mi WNW 5.8 mph - N/A   Overcast
8:53 PM 60.8 °F 59.0 °F 94% 30.01 in 10.0 mi Variable 4.6 mph - N/A   Overcast
9:53 PM 60.8 °F 57.2 °F 88% 30.03 in 10.0 mi Variable 3.5 mph - N/A   Overcast
10:35 PM 60.8 °F 57.2 °F 88% 30.04 in 10.0 mi West 4.6 mph - N/A   Overcast
10:53 PM 60.1 °F 57.0 °F 90% 30.03 in 10.0 mi Calm Calm - N/A   Overcast
11:03 PM 60.8 °F 57.2 °F 88% 30.04 in 10.0 mi NW 3.5 mph - N/A   Overcast
11:53 PM 60.1 °F 55.9 °F 86% 30.04 in 10.0 mi Calm Calm - N/A   Overcast